TimePDT,TemperatureF,Dew PointF,Humidity,Sea Level PressureIn,VisibilityMPH,Wind Direction,Wind SpeedMPH,Gust SpeedMPH,PrecipitationIn,Events,Conditions,WindDirDegrees,DateUTC
12:55 AM,50.0,46.9,89,30.16,10.0,Calm,Calm,-,N/A,,Overcast,0,2013-03-29 07:55:00
1:55 AM,50.0,46.9,89,30.17,10.0,Calm,Calm,-,N/A,,Overcast,0,2013-03-29 08:55:00
2:55 AM,48.9,46.9,93,30.18,9.0,Calm,Calm,-,N/A,,Overcast,0,2013-03-29 09:55:00
3:25 AM,50.0,46.4,87,30.18,10.0,Calm,Calm,-,N/A,,Overcast,0,2013-03-29 10:25:00
3:35 AM,48.2,46.4,93,30.18,10.0,Calm,Calm,-,N/A,,Overcast,0,2013-03-29 10:35:00
3:55 AM,48.9,46.9,93,30.18,10.0,Calm,Calm,-,N/A,,Overcast,0,2013-03-29 10:55:00
4:45 AM,48.2,46.4,93,30.18,10.0,NW,3.5,-,N/A,,Overcast,320,2013-03-29 11:45:00
4:55 AM,48.9,46.9,93,30.18,10.0,WNW,3.5,-,N/A,,Overcast,290,2013-03-29 11:55:00
5:04 AM,48.2,46.4,93,30.18,10.0,WNW,3.5,-,N/A,,Overcast,300,2013-03-29 12:04:00
5:35 AM,48.2,46.4,93,30.18,10.0,NW,4.6,-,N/A,,Overcast,320,2013-03-29 12:35:00
5:42 AM,48.2,46.4,93,30.18,10.0,NNW,3.5,-,N/A,,Overcast,330,2013-03-29 12:42:00
5:55 AM,48.9,46.9,93,30.19,10.0,NW,3.5,-,N/A,,Overcast,320,2013-03-29 12:55:00
6:48 AM,48.2,46.4,93,30.20,10.0,Calm,Calm,-,N/A,,Overcast,0,2013-03-29 13:48:00
6:55 AM,48.9,48.0,97,30.20,10.0,Calm,Calm,-,N/A,,Overcast,0,2013-03-29 13:55:00
7:10 AM,48.2,46.4,93,30.20,10.0,Calm,Calm,-,N/A,,Overcast,0,2013-03-29 14:10:00
7:55 AM,50.0,48.0,93,30.21,7.0,Calm,Calm,-,N/A,,Overcast,0,2013-03-29 14:55:00
8:36 AM,50.0,48.2,94,30.22,10.0,NNW,3.5,-,N/A,,Overcast,330,2013-03-29 15:36:00
8:55 AM,50.0,48.0,93,30.22,10.0,North,5.8,-,N/A,,Overcast,350,2013-03-29 15:55:00
9:22 AM,50.0,48.2,94,30.22,10.0,NNW,4.6,-,N/A,,Overcast,330,2013-03-29 16:22:00
9:55 AM,50.0,46.9,89,30.23,10.0,NNW,3.5,-,N/A,,Overcast,340,2013-03-29 16:55:00
10:30 AM,51.8,48.2,88,30.23,10.0,Calm,Calm,-,N/A,,Overcast,0,2013-03-29 17:30:00
10:55 AM,53.1,48.0,83,30.23,10.0,Calm,Calm,-,N/A,,Mostly Cloudy,0,2013-03-29 17:55:00
11:07 AM,53.6,48.2,82,30.23,10.0,North,5.8,-,N/A,,Scattered Clouds,360,2013-03-29 18:07:00
11:55 AM,55.9,48.9,77,30.23,10.0,North,3.5,-,N/A,,Partly Cloudy,360,2013-03-29 18:55:00
12:55 PM,57.0,48.9,74,30.22,10.0,North,5.8,-,N/A,,Partly Cloudy,350,2013-03-29 19:55:00
1:55 PM,57.0,48.9,74,30.21,10.0,NNW,10.4,-,N/A,,Partly Cloudy,340,2013-03-29 20:55:00
2:55 PM,57.0,48.9,74,30.20,10.0,NNW,12.7,-,N/A,,Overcast,330,2013-03-29 21:55:00
3:55 PM,57.9,48.9,72,30.19,10.0,NW,11.5,-,N/A,,Partly Cloudy,320,2013-03-29 22:55:00
4:55 PM,57.9,48.9,72,30.19,10.0,NW,10.4,-,N/A,,Clear,310,2013-03-29 23:55:00
5:55 PM,57.0,48.0,72,30.18,10.0,NW,10.4,-,N/A,,Clear,310,2013-03-30 00:55:00
6:55 PM,53.1,46.9,80,30.18,10.0,WNW,10.4,-,N/A,,Clear,300,2013-03-30 01:55:00
7:55 PM,48.9,46.0,90,30.18,10.0,West,4.6,-,N/A,,Partly Cloudy,270,2013-03-30 02:55:00
8:55 PM,48.9,45.0,86,30.19,10.0,Calm,Calm,-,N/A,,Mostly Cloudy,0,2013-03-30 03:55:00
9:55 PM,46.0,44.1,93,30.20,10.0,Calm,Calm,-,N/A,,Clear,0,2013-03-30 04:55:00
10:55 PM,46.0,43.0,89,30.20,10.0,Calm,Calm,-,N/A,,Clear,0,2013-03-30 05:55:00
11:55 PM,43.0,41.0,93,30.20,10.0,Calm,Calm,-,N/A,,Clear,0,2013-03-30 06:55:00